Time,TemperatureF,DewpointF,PressureIn,WindDirection,WindDirectionDegrees,WindSpeedMPH,WindSpeedGustMPH,Humidity,HourlyPrecipIn,Conditions,Clouds,dailyrainin,SoftwareType,DateUTC
2013-02-15 00:02:00,34.0,32.0,30.05,WSW,239,0.0,0.0,93,0.00,,,0.00,,2013-02-15 05:02:00,
2013-02-15 00:12:00,34.0,32.0,30.05,WSW,239,0.0,0.0,93,0.00,,,0.00,,2013-02-15 05:12:00,
2013-02-15 00:22:00,34.0,32.0,30.05,WSW,239,0.0,0.0,94,0.00,,,0.00,,2013-02-15 05:22:00,
2013-02-15 00:32:00,34.0,33.0,30.06,WSW,239,0.0,0.0,95,0.00,,,0.00,,2013-02-15 05:32:00,
2013-02-15 00:42:00,34.0,33.0,30.06,WSW,239,0.0,0.0,95,0.00,,,0.00,,2013-02-15 05:42:00,
2013-02-15 00:52:00,34.0,33.0,30.06,WSW,240,0.0,0.0,95,0.00,,,0.00,,2013-02-15 05:52:00,
2013-02-15 01:02:00,35.0,34.0,30.07,WSW,239,0.0,0.0,96,0.00,,,0.00,,2013-02-15 06:02:00,
2013-02-15 01:11:00,35.0,34.0,30.07,WSW,239,0.0,0.0,96,0.00,,,0.00,,2013-02-15 06:11:00,
2013-02-15 01:22:00,36.0,35.0,30.07,WSW,239,0.0,1.0,95,0.00,,,0.00,,2013-02-15 06:22:00,
2013-02-15 01:32:00,37.0,35.0,30.07,WSW,239,0.0,1.0,93,0.00,,,0.00,,2013-02-15 06:32:00,
2013-02-15 01:42:00,37.0,35.0,30.07,WSW,239,0.0,1.0,93,0.00,,,0.00,,2013-02-15 06:42:00,
2013-02-15 01:52:00,37.0,35.0,30.06,WSW,240,0.0,0.0,92,0.00,,,0.00,,2013-02-15 06:52:00,
2013-02-15 02:01:00,35.0,33.0,30.05,WSW,239,0.0,0.0,91,0.00,,,0.00,,2013-02-15 07:01:00,
2013-02-15 02:11:00,35.0,33.0,30.05,WSW,239,0.0,0.0,91,0.00,,,0.00,,2013-02-15 07:11:00,
2013-02-15 02:21:00,34.0,32.0,30.05,WSW,239,1.0,1.0,93,0.00,,,0.00,,2013-02-15 07:21:00,
2013-02-15 02:32:00,33.0,31.0,30.05,WSW,239,0.0,1.0,93,0.00,,,0.00,,2013-02-15 07:32:00,
2013-02-15 02:42:00,33.0,31.0,30.05,WSW,239,0.0,1.0,93,0.00,,,0.00,,2013-02-15 07:42:00,
2013-02-15 02:52:00,33.0,32.0,30.04,WSW,240,0.0,1.0,95,0.00,,,0.00,,2013-02-15 07:52:00,
2013-02-15 03:01:00,34.0,32.0,30.04,WSW,240,0.0,0.0,94,0.00,,,0.00,,2013-02-15 08:01:00,
2013-02-15 03:11:00,34.0,32.0,30.04,WSW,240,0.0,0.0,94,0.00,,,0.00,,2013-02-15 08:11:00,
2013-02-15 03:21:00,35.0,33.0,30.04,WSW,245,0.0,1.0,93,0.00,,,0.00,,2013-02-15 08:21:00,
2013-02-15 03:32:00,36.0,33.0,30.04,WSW,249,0.0,1.0,90,0.00,,,0.00,,2013-02-15 08:32:00,
2013-02-15 03:42:00,36.0,33.0,30.04,WSW,249,0.0,1.0,90,0.00,,,0.00,,2013-02-15 08:42:00,
2013-02-15 03:53:00,37.0,34.0,30.04,WNW,298,1.0,4.0,88,0.00,,,0.00,,2013-02-15 08:53:00,
2013-02-15 04:02:00,37.0,34.0,30.04,WNW,302,1.0,2.0,87,0.00,,,0.00,,2013-02-15 09:02:00,
2013-02-15 04:12:00,37.0,34.0,30.04,WNW,302,1.0,2.0,87,0.00,,,0.00,,2013-02-15 09:12:00,
2013-02-15 04:21:00,38.0,34.0,30.04,West,274,1.0,3.0,86,0.00,,,0.00,,2013-02-15 09:21:00,
2013-02-15 04:32:00,37.0,33.0,30.05,WNW,288,0.0,1.0,86,0.00,,,0.00,,2013-02-15 09:32:00,
2013-02-15 04:42:00,37.0,33.0,30.05,WNW,288,0.0,1.0,86,0.00,,,0.00,,2013-02-15 09:42:00,
2013-02-15 04:52:00,38.0,34.0,30.05,West,279,0.0,2.0,86,0.00,,,0.00,,2013-02-15 09:52:00,
2013-02-15 05:01:00,38.0,34.0,30.05,WNW,287,0.0,2.0,87,0.00,,,0.00,,2013-02-15 10:01:00,
2013-02-15 05:11:00,38.0,34.0,30.05,WNW,287,0.0,2.0,87,0.00,,,0.00,,2013-02-15 10:11:00,
2013-02-15 05:21:00,37.0,34.0,30.05,NW,318,1.0,2.0,88,0.00,,,0.00,,2013-02-15 10:21:00,
2013-02-15 05:32:00,36.0,33.0,30.04,WNW,291,0.0,1.0,89,0.00,,,0.00,,2013-02-15 10:32:00,
2013-02-15 05:42:00,36.0,33.0,30.04,WNW,291,0.0,1.0,89,0.00,,,0.00,,2013-02-15 10:42:00,
2013-02-15 05:52:00,37.0,34.0,30.04,WNW,294,1.0,2.0,89,0.00,,,0.00,,2013-02-15 10:52:00,
2013-02-15 06:01:00,37.0,34.0,30.04,WNW,285,1.0,3.0,88,0.00,,,0.00,,2013-02-15 11:01:00,
2013-02-15 06:11:00,37.0,34.0,30.04,WNW,285,1.0,3.0,88,0.00,,,0.00,,2013-02-15 11:11:00,
2013-02-15 06:23:00,36.0,33.0,30.04,WNW,287,1.0,2.0,89,0.00,,,0.00,,2013-02-15 11:23:00,
2013-02-15 06:32:00,36.0,33.0,30.06,WNW,295,0.0,1.0,90,0.00,,,0.00,,2013-02-15 11:32:00,
2013-02-15 06:42:00,36.0,33.0,30.06,WNW,295,0.0,1.0,90,0.00,,,0.00,,2013-02-15 11:42:00,
2013-02-15 06:52:00,33.0,31.0,30.06,SSW,194,1.0,3.0,92,0.00,,,0.00,,2013-02-15 11:52:00,
2013-02-15 07:02:00,33.0,31.0,30.06,SSW,197,2.0,4.0,93,0.00,,,0.00,,2013-02-15 12:02:00,
2013-02-15 07:11:00,33.0,31.0,30.06,SSW,197,2.0,4.0,93,0.00,,,0.00,,2013-02-15 12:11:00,
2013-02-15 07:22:00,33.0,31.0,30.07,SW,233,1.0,2.0,93,0.00,,,0.00,,2013-02-15 12:22:00,
2013-02-15 07:32:00,33.0,31.0,30.08,SW,236,1.0,2.0,94,0.00,,,0.00,,2013-02-15 12:32:00,
2013-02-15 07:42:00,33.0,31.0,30.08,SW,236,1.0,2.0,94,0.00,,,0.00,,2013-02-15 12:42:00,
2013-02-15 07:52:00,33.0,31.0,30.08,WSW,245,1.0,1.0,93,0.00,,,0.00,,2013-02-15 12:52:00,
2013-02-15 08:02:00,34.0,32.0,30.08,SW,228,3.0,4.0,93,0.00,,,0.00,,2013-02-15 13:02:00,
2013-02-15 08:11:00,34.0,32.0,30.08,SW,228,3.0,4.0,93,0.00,,,0.00,,2013-02-15 13:11:00,
2013-02-15 08:22:00,36.0,34.0,30.08,SW,228,3.0,3.0,93,0.00,,,0.00,,2013-02-15 13:22:00,
2013-02-15 08:32:00,38.0,35.0,30.09,SW,219,4.0,4.0,90,0.00,,,0.00,,2013-02-15 13:32:00,
2013-02-15 08:52:00,40.0,37.0,30.09,SW,214,2.0,4.0,89,0.00,,,0.00,,2013-02-15 13:52:00,
2013-02-15 09:01:00,42.0,38.0,30.09,SSW,207,1.0,3.0,85,0.00,,,0.00,,2013-02-15 14:01:00,
2013-02-15 09:21:00,44.0,39.0,30.09,West,262,2.0,4.0,82,0.00,,,0.00,,2013-02-15 14:21:00,
2013-02-15 09:32:00,45.0,38.0,30.08,NW,320,2.0,4.0,77,0.00,,,0.00,,2013-02-15 14:32:00,
2013-02-15 09:52:00,47.0,40.0,30.09,NW,308,2.0,5.0,76,0.00,,,0.00,,2013-02-15 14:52:00,
2013-02-15 10:02:00,48.0,40.0,30.09,NNE,26,1.0,5.0,74,0.00,,,0.00,,2013-02-15 15:02:00,
2013-02-15 10:22:00,49.0,40.0,30.08,WNW,290,2.0,6.0,71,0.00,,,0.00,,2013-02-15 15:22:00,
2013-02-15 10:32:00,51.0,40.0,30.08,WNW,290,3.0,5.0,67,0.00,,,0.00,,2013-02-15 15:32:00,
2013-02-15 10:52:00,51.0,40.0,30.08,NW,323,2.0,6.0,67,0.00,,,0.00,,2013-02-15 15:52:00,
2013-02-15 11:02:00,53.0,41.0,30.08,NNW,345,2.0,4.0,64,0.00,,,0.00,,2013-02-15 16:02:00,
2013-02-15 11:11:00,53.0,41.0,30.08,NNW,345,2.0,4.0,64,0.00,,,0.00,,2013-02-15 16:11:00,
2013-02-15 11:22:00,54.0,41.0,30.07,NW,322,2.0,5.0,61,0.00,,,0.00,,2013-02-15 16:22:00,
2013-02-15 11:32:00,55.0,40.0,30.07,NNW,345,3.0,5.0,56,0.00,,,0.00,,2013-02-15 16:32:00,
2013-02-15 11:42:00,55.0,40.0,30.07,NNW,345,3.0,5.0,56,0.00,,,0.00,,2013-02-15 16:42:00,
2013-02-15 11:52:00,56.0,40.0,30.06,NNE,27,2.0,5.0,55,0.00,,,0.00,,2013-02-15 16:52:00,
2013-02-15 12:01:00,58.0,38.0,30.05,NNW,330,2.0,5.0,47,0.00,,,0.00,,2013-02-15 17:01:00,
2013-02-15 12:11:00,58.0,36.0,30.05,SW,214,5.0,8.0,43,0.00,,,0.00,,2013-02-15 17:11:00,
2013-02-15 12:21:00,58.0,36.0,30.05,SW,214,5.0,8.0,43,0.00,,,0.00,,2013-02-15 17:21:00,
2013-02-15 12:32:00,59.0,37.0,30.04,ESE,105,2.0,7.0,44,0.00,,,0.00,,2013-02-15 17:32:00,
2013-02-15 12:42:00,59.0,37.0,30.04,ESE,105,2.0,7.0,44,0.00,,,0.00,,2013-02-15 17:42:00,
2013-02-15 12:52:00,60.0,36.0,30.03,NE,43,2.0,5.0,40,0.00,,,0.00,,2013-02-15 17:52:00,
2013-02-15 13:01:00,60.0,35.0,30.03,SW,217,3.0,6.0,39,0.00,,,0.00,,2013-02-15 18:01:00,
2013-02-15 13:12:00,60.0,35.0,30.03,SW,217,3.0,6.0,39,0.00,,,0.00,,2013-02-15 18:12:00,
2013-02-15 13:21:00,60.0,34.0,30.02,SW,232,4.0,9.0,37,0.00,,,0.00,,2013-02-15 18:21:00,
2013-02-15 13:32:00,61.0,35.0,30.01,SW,217,8.0,9.0,38,0.00,,,0.00,,2013-02-15 18:32:00,
2013-02-15 13:42:00,61.0,35.0,30.01,SW,217,8.0,9.0,38,0.00,,,0.00,,2013-02-15 18:42:00,
2013-02-15 13:53:00,61.0,35.0,30.01,SE,146,3.0,7.0,38,0.00,,,0.00,,2013-02-15 18:53:00,
2013-02-15 14:01:00,61.0,35.0,30.00,SW,229,4.0,6.0,38,0.00,,,0.00,,2013-02-15 19:01:00,
2013-02-15 14:11:00,61.0,35.0,30.00,SW,229,4.0,6.0,38,0.00,,,0.00,,2013-02-15 19:11:00,
2013-02-15 14:22:00,61.0,35.0,29.99,NW,316,2.0,8.0,37,0.00,,,0.00,,2013-02-15 19:22:00,
2013-02-15 14:32:00,61.0,35.0,29.98,SW,219,2.0,7.0,38,0.00,,,0.00,,2013-02-15 19:32:00,
2013-02-15 14:42:00,61.0,35.0,29.98,SW,219,2.0,7.0,38,0.00,,,0.00,,2013-02-15 19:42:00,
2013-02-15 14:52:00,61.0,33.0,29.97,NW,316,5.0,9.0,35,0.00,,,0.00,,2013-02-15 19:52:00,
2013-02-15 15:01:00,62.0,35.0,29.96,SSW,208,2.0,10.0,36,0.00,,,0.00,,2013-02-15 20:01:00,
2013-02-15 15:11:00,62.0,35.0,29.96,SSW,208,2.0,10.0,36,0.00,,,0.00,,2013-02-15 20:11:00,
2013-02-15 15:21:00,62.0,34.0,29.96,SW,229,2.0,9.0,35,0.00,,,0.00,,2013-02-15 20:21:00,
2013-02-15 15:32:00,63.0,34.0,29.95,WSW,238,4.0,9.0,34,0.00,,,0.00,,2013-02-15 20:32:00,
2013-02-15 15:42:00,63.0,34.0,29.95,WSW,238,4.0,9.0,34,0.00,,,0.00,,2013-02-15 20:42:00,
2013-02-15 15:52:00,63.0,34.0,29.95,West,259,3.0,8.0,34,0.00,,,0.00,,2013-02-15 20:52:00,
2013-02-15 16:02:00,63.0,34.0,29.94,WNW,293,5.0,8.0,34,0.00,,,0.00,,2013-02-15 21:02:00,
2013-02-15 16:11:00,63.0,34.0,29.94,WNW,293,5.0,8.0,34,0.00,,,0.00,,2013-02-15 21:11:00,
2013-02-15 16:22:00,63.0,33.0,29.94,WNW,287,2.0,7.0,32,0.00,,,0.00,,2013-02-15 21:22:00,
2013-02-15 16:32:00,62.0,33.0,29.94,West,262,1.0,4.0,33,0.00,,,0.00,,2013-02-15 21:32:00,
2013-02-15 16:42:00,62.0,33.0,29.94,West,262,1.0,4.0,33,0.00,,,0.00,,2013-02-15 21:42:00,
2013-02-15 16:52:00,62.0,33.0,29.94,West,260,3.0,9.0,34,0.00,,,0.00,,2013-02-15 21:52:00,
2013-02-15 17:02:00,62.0,33.0,29.93,West,267,2.0,7.0,34,0.00,,,0.00,,2013-02-15 22:02:00,
2013-02-15 17:11:00,62.0,33.0,29.93,West,267,2.0,7.0,34,0.00,,,0.00,,2013-02-15 22:11:00,
2013-02-15 17:22:00,61.0,32.0,29.93,WSW,238,6.0,8.0,34,0.00,,,0.00,,2013-02-15 22:22:00,
2013-02-15 17:32:00,60.0,34.0,29.93,SW,229,3.0,6.0,38,0.00,,,0.00,,2013-02-15 22:32:00,
2013-02-15 17:42:00,60.0,34.0,29.93,SW,229,3.0,6.0,38,0.00,,,0.00,,2013-02-15 22:42:00,
2013-02-15 17:52:00,59.0,34.0,29.93,WSW,245,2.0,4.0,39,0.00,,,0.00,,2013-02-15 22:52:00,
2013-02-15 18:02:00,57.0,34.0,29.93,SW,232,2.0,3.0,42,0.00,,,0.00,,2013-02-15 23:02:00,
2013-02-15 18:11:00,57.0,34.0,29.93,SW,232,2.0,3.0,42,0.00,,,0.00,,2013-02-15 23:11:00,
2013-02-15 18:21:00,56.0,34.0,29.93,SW,214,1.0,2.0,43,0.00,,,0.00,,2013-02-15 23:21:00,
2013-02-15 18:32:00,55.0,34.0,29.93,SSW,205,1.0,2.0,45,0.00,,,0.00,,2013-02-15 23:32:00,
2013-02-15 18:42:00,55.0,34.0,29.93,SSW,205,1.0,2.0,45,0.00,,,0.00,,2013-02-15 23:42:00,
2013-02-15 18:52:00,53.0,34.0,29.93,SSW,204,0.0,1.0,48,0.00,,,0.00,,2013-02-15 23:52:00,
2013-02-15 19:02:00,53.0,34.0,29.93,SSE,163,3.0,5.0,49,0.00,,,0.00,,2013-02-16 00:02:00,
2013-02-15 19:11:00,53.0,34.0,29.93,SSE,163,3.0,5.0,49,0.00,,,0.00,,2013-02-16 00:11:00,
2013-02-15 19:22:00,53.0,35.0,29.93,SW,236,4.0,5.0,50,0.00,,,0.00,,2013-02-16 00:22:00,
2013-02-15 19:32:00,53.0,35.0,29.94,SW,226,2.0,5.0,51,0.00,,,0.00,,2013-02-16 00:32:00,
2013-02-15 19:42:00,53.0,35.0,29.94,SW,226,2.0,5.0,51,0.00,,,0.00,,2013-02-16 00:42:00,
2013-02-15 19:52:00,52.0,35.0,29.94,SW,235,1.0,3.0,53,0.00,,,0.00,,2013-02-16 00:52:00,
2013-02-15 20:02:00,51.0,35.0,29.94,SW,214,0.0,2.0,54,0.00,,,0.00,,2013-02-16 01:02:00,
2013-02-15 20:11:00,51.0,35.0,29.94,SW,214,0.0,2.0,54,0.00,,,0.00,,2013-02-16 01:11:00,
2013-02-15 20:21:00,48.0,35.0,29.94,SW,215,0.0,0.0,60,0.00,,,0.00,,2013-02-16 01:21:00,
2013-02-15 20:32:00,47.0,35.0,29.94,SW,215,0.0,0.0,62,0.00,,,0.00,,2013-02-16 01:32:00,
2013-02-15 20:42:00,47.0,35.0,29.94,SW,215,0.0,0.0,62,0.00,,,0.00,,2013-02-16 01:42:00,
2013-02-15 20:52:00,47.0,35.0,29.94,SW,215,0.0,0.0,62,0.00,,,0.00,,2013-02-16 01:52:00,
2013-02-15 21:01:00,46.0,35.0,29.94,SSE,161,1.0,2.0,66,0.00,,,0.00,,2013-02-16 02:01:00,
2013-02-15 21:11:00,46.0,35.0,29.94,SSE,161,1.0,2.0,66,0.00,,,0.00,,2013-02-16 02:11:00,
2013-02-15 21:22:00,45.0,34.0,29.94,SSE,160,0.0,1.0,65,0.00,,,0.00,,2013-02-16 02:22:00,
2013-02-15 21:32:00,46.0,34.0,29.94,SSW,201,2.0,3.0,63,0.00,,,0.00,,2013-02-16 02:32:00,
2013-02-15 21:42:00,46.0,34.0,29.94,SSW,201,2.0,3.0,63,0.00,,,0.00,,2013-02-16 02:42:00,
2013-02-15 21:52:00,48.0,34.0,29.94,SSW,204,2.0,4.0,58,0.00,,,0.00,,2013-02-16 02:52:00,
2013-02-15 22:02:00,48.0,34.0,29.94,SSW,204,2.0,4.0,58,0.00,,,0.00,,2013-02-16 03:02:00,
2013-02-15 22:11:00,48.0,34.0,29.94,SSW,204,2.0,4.0,58,0.00,,,0.00,,2013-02-16 03:11:00,
2013-02-15 22:21:00,48.0,34.0,29.94,SW,217,3.0,4.0,59,0.00,,,0.00,,2013-02-16 03:21:00,
2013-02-15 22:32:00,48.0,35.0,29.94,SW,217,3.0,3.0,60,0.00,,,0.00,,2013-02-16 03:32:00,
2013-02-15 22:42:00,48.0,35.0,29.94,SW,217,3.0,3.0,60,0.00,,,0.00,,2013-02-16 03:42:00,
2013-02-15 22:52:00,48.0,36.0,29.94,SW,218,2.0,3.0,62,0.00,,,0.00,,2013-02-16 03:52:00,
2013-02-15 23:01:00,46.0,34.0,29.93,SSW,194,2.0,2.0,63,0.00,,,0.00,,2013-02-16 04:01:00,
2013-02-15 23:11:00,46.0,34.0,29.93,SSW,194,2.0,2.0,63,0.00,,,0.00,,2013-02-16 04:11:00,
2013-02-15 23:21:00,46.0,35.0,29.93,SSW,204,2.0,3.0,65,0.00,,,0.00,,2013-02-16 04:21:00,
2013-02-15 23:32:00,46.0,35.0,29.92,South,183,1.0,3.0,64,0.00,,,0.00,,2013-02-16 04:32:00,
2013-02-15 23:42:00,46.0,35.0,29.92,South,183,1.0,3.0,64,0.00,,,0.00,,2013-02-16 04:42:00,
2013-02-15 23:52:00,45.0,35.0,29.92,SSW,207,3.0,5.0,68,0.00,,,0.00,,2013-02-16 04:52:00,